| time (UTC) | temp F | wind direction | speed MPH | gust MPH | rain 1hr in | rain 24hr in | rain mn in | humidity % | barometer mb |
| 20260505175515 | 65 | 258 | 0.0 | 0.0 | 0.00 | 0.00 | 0.06 | 65 | 1002.7 |
| 20260505175015 | 66 | 267 | 0.0 | 0.0 | 0.00 | 0.00 | 0.06 | 65 | 1003.0 |
| 20260505174515 | 66 | 264 | 0.0 | 0.0 | 0.00 | 0.00 | 0.06 | 65 | 1002.6 |
| 20260505174015 | 66 | 242 | 0.0 | 0.0 | 0.00 | 0.00 | 0.06 | 64 | 1002.7 |
| 20260505173517 | 66 | 306 | 0.0 | 0.0 | 0.00 | 0.00 | 0.06 | 65 | 1002.6 |
| 20260505173015 | 66 | 273 | 0.0 | 0.0 | 0.00 | 0.00 | 0.06 | 66 | 1002.7 |
| 20260505172514 | 66 | 242 | 0.0 | 0.0 | 0.00 | 0.00 | 0.06 | 66 | 1002.8 |
| 20260505172019 | 66 | 241 | 0.0 | 0.0 | 0.00 | 0.00 | 0.06 | 67 | 1002.7 |
| 20260505171514 | 65 | 257 | 0.0 | 0.0 | 0.00 | 0.00 | 0.06 | 66 | 1002.9 |
| 20260505171016 | 66 | 250 | 0.0 | 0.0 | 0.00 | 0.00 | 0.06 | 66 | 1002.9 |
| 20260505170512 | 66 | 247 | 0.0 | 0.0 | 0.00 | 0.00 | 0.06 | 66 | 1002.9 |
| 20260505170013 | 66 | 265 | 0.0 | 0.0 | 0.00 | 0.00 | 0.06 | 64 | 1002.7 |
| 20260505165514 | 67 | 208 | 0.0 | 0.0 | 0.00 | 0.00 | 0.06 | 63 | 1002.6 |
| 20260505163012 | 66 | 197 | 0.0 | 0.0 | 0.00 | 0.00 | 0.05 | 65 | 1002.4 |
| 20260505162516 | 66 | 193 | 0.0 | 0.0 | 0.00 | 0.00 | 0.05 | 64 | 1002.2 |
| 20260505162014 | 65 | 205 | 0.0 | 0.0 | 0.00 | 0.00 | 0.05 | 65 | 1002.1 |
| 20260505161533 | 65 | 205 | 0.0 | 0.0 | 0.00 | 0.00 | 0.05 | 66 | 1001.9 |
| 20260505161012 | 64 | 203 | 0.0 | 0.0 | 0.00 | 0.00 | 0.05 | 66 | 1002.1 |
| 20260505160516 | 63 | 207 | 0.0 | 0.0 | 0.00 | 0.00 | 0.05 | 67 | 1002.2 |
| 20260505153013 | 65 | 179 | 0.0 | 0.0 | 0.00 | 0.00 | 0.05 | 63 | 1002.4 |
| 20260505152507 | 66 | 255 | 0.0 | 0.0 | 0.00 | 0.00 | 0.05 | 62 | 1001.9 |
| 20260505152007 | 66 | 255 | 0.0 | 0.0 | 0.00 | 0.00 | 0.05 | 63 | 1001.7 |
| 20260505151507 | 66 | 251 | 0.0 | 0.0 | 0.00 | 0.00 | 0.05 | 64 | 1001.6 |
| 20260505151007 | 65 | 287 | 0.0 | 0.0 | 0.00 | 0.00 | 0.05 | 65 | 1001.5 |
| 20260505150506 | 65 | 261 | 0.0 | 0.0 | 0.00 | 0.00 | 0.05 | 65 | 1001.5 |
| 20260505140504 | 64 | 204 | 0.0 | 0.0 | 0.00 | 0.00 | 0.05 | 65 | 1001.2 |
| 20260505125003 | 65 | 279 | 0.0 | 0.0 | 0.00 | 0.00 | 0.05 | 65 | 1000.5 |
| 20260505124507 | 65 | 262 | 0.0 | 0.0 | 0.00 | 0.00 | 0.05 | 64 | 1000.5 |
| 20260505124002 | 65 | 217 | 0.0 | 0.0 | 0.00 | 0.00 | 0.05 | 64 | 1000.1 |
| 20260505123501 | 66 | 217 | 0.0 | 0.0 | 0.00 | 0.00 | 0.05 | 64 | 1000.1 |
| 20260505123002 | 66 | 268 | 0.0 | 0.0 | 0.00 | 0.00 | 0.05 | 64 | 1000.0 |
| 20260505122501 | 67 | 234 | 0.0 | 0.0 | 0.00 | 0.00 | 0.05 | 63 | 1000.0 |
| 20260505122002 | 67 | 187 | 0.0 | 0.0 | 0.00 | 0.00 | 0.05 | 62 | 1000.0 |
| 20260505121505 | 67 | 219 | 0.0 | 0.0 | 0.00 | 0.00 | 0.05 | 62 | 1000.0 |
| 20260505121101 | 67 | 207 | 0.0 | 0.0 | 0.00 | 0.00 | 0.05 | 62 | 1000.0 |
| 20260505120600 | 67 | 253 | 0.0 | 0.0 | 0.00 | 0.00 | 0.05 | 62 | 999.9 |
| 20260505120118 | 67 | 202 | 0.0 | 0.0 | 0.00 | 0.00 | 0.05 | 62 | 999.9 |
| 20260505115558 | 67 | 186 | 0.0 | 0.0 | 0.00 | 0.00 | 0.05 | 63 | 999.9 |
| 20260505115058 | 67 | 205 | 0.0 | 0.0 | 0.00 | 0.00 | 0.05 | 63 | 999.6 |
| 20260505114558 | 67 | 213 | 0.0 | 0.0 | 0.00 | 0.00 | 0.05 | 63 | 999.7 |
| 20260505114058 | 66 | 192 | 0.0 | 0.0 | 0.00 | 0.00 | 0.05 | 64 | 999.7 |
| 20260505113557 | 66 | 232 | 0.0 | 0.0 | 0.00 | 0.00 | 0.05 | 64 | 999.7 |
| 20260505113115 | 66 | 176 | 0.0 | 0.0 | 0.00 | 0.00 | 0.05 | 64 | 999.6 |
| 20260505112557 | 66 | 219 | 0.0 | 0.0 | 0.00 | 0.00 | 0.05 | 64 | 999.5 |
| 20260505112056 | 66 | 206 | 0.0 | 0.0 | 0.00 | 0.00 | 0.05 | 64 | 999.5 |
| 20260505111556 | 66 | 197 | 0.0 | 0.0 | 0.00 | 0.00 | 0.05 | 65 | 999.5 |
| 20260505111056 | 66 | 209 | 0.0 | 0.0 | 0.00 | 0.00 | 0.05 | 65 | 999.4 |
| 20260505110558 | 66 | 213 | 0.0 | 0.0 | 0.00 | 0.00 | 0.05 | 66 | 999.3 |
| 20260505110107 | 66 | 189 | 0.0 | 0.0 | 0.00 | 0.00 | 0.05 | 66 | 999.0 |
| 20260505102053 | 64 | 224 | 0.0 | 0.0 | 0.00 | 0.00 | 0.05 | 69 | 998.7 |
| 20260505101555 | 64 | 235 | 0.0 | 0.0 | 0.00 | 0.00 | 0.05 | 70 | 998.6 |
| 20260505101055 | 64 | 181 | 0.0 | 0.0 | 0.00 | 0.00 | 0.05 | 70 | 998.5 |
| 20260505100553 | 64 | 182 | 0.0 | 0.0 | 0.00 | 0.00 | 0.05 | 70 | 998.5 |
| 20260505100053 | 64 | 180 | 0.0 | 0.0 | 0.00 | 0.00 | 0.05 | 71 | 998.6 |
| 20260505095552 | 63 | 180 | 0.0 | 0.0 | 0.00 | 0.00 | 0.05 | 72 | 998.5 |
| 20260505095053 | 63 | 160 | 0.0 | 0.0 | 0.00 | 0.00 | 0.05 | 73 | 998.5 |
| 20260505094607 | 63 | 202 | 0.0 | 0.0 | 0.00 | 0.00 | 0.05 | 74 | 998.5 |
| 20260505094052 | 62 | 184 | 0.0 | 0.0 | 0.00 | 0.00 | 0.05 | 75 | 998.6 |
| 20260505093551 | 62 | 157 | 0.0 | 0.0 | 0.00 | 0.00 | 0.05 | 76 | 998.5 |
| 20260505093056 | 61 | 171 | 0.0 | 0.0 | 0.00 | 0.00 | 0.05 | 76 | 998.6 |
| 20260505092550 | 61 | 167 | 0.0 | 0.0 | 0.00 | 0.00 | 0.05 | 76 | 998.5 |
| 20260505092051 | 61 | 190 | 0.0 | 0.0 | 0.00 | 0.00 | 0.05 | 76 | 998.5 |
| 20260505091556 | 61 | 168 | 0.0 | 0.0 | 0.00 | 0.00 | 0.05 | 76 | 998.5 |
| 20260505091050 | 61 | 171 | 0.0 | 0.0 | 0.00 | 0.00 | 0.05 | 77 | 998.3 |
| 20260505090551 | 61 | 196 | 0.0 | 0.0 | 0.00 | 0.00 | 0.05 | 78 | 998.3 |
| 20260505090053 | 60 | 178 | 0.0 | 0.0 | 0.00 | 0.00 | 0.05 | 79 | 998.4 |
| 20260505085550 | 60 | 223 | 0.0 | 0.0 | 0.00 | 0.00 | 0.05 | 80 | 998.3 |
| 20260505085051 | 59 | 188 | 0.0 | 0.0 | 0.00 | 0.00 | 0.05 | 82 | 998.4 |
| 20260505084555 | 59 | 161 | 0.0 | 0.0 | 0.00 | 0.00 | 0.05 | 83 | 998.5 |
| 20260505084048 | 58 | 165 | 0.0 | 0.0 | 0.00 | 0.00 | 0.05 | 83 | 998.5 |
| 20260505083547 | 58 | 170 | 0.0 | 0.0 | 0.00 | 0.00 | 0.05 | 84 | 998.6 |
| 20260505083057 | 58 | 178 | 0.0 | 0.0 | 0.00 | 0.00 | 0.05 | 85 | 998.6 |
| 20260505082547 | 58 | 157 | 0.0 | 0.0 | 0.00 | 0.00 | 0.05 | 86 | 998.6 |
| 20260505082047 | 57 | 159 | 0.0 | 0.0 | 0.00 | 0.00 | 0.05 | 86 | 998.6 |
| 20260505081556 | 57 | 153 | 0.0 | 0.0 | 0.00 | 0.00 | 0.05 | 87 | 998.7 |
| 20260505081045 | 57 | 161 | 0.0 | 0.0 | 0.00 | 0.00 | 0.05 | 87 | 998.9 |
| 20260505080548 | 56 | 157 | 0.0 | 0.0 | 0.00 | 0.00 | 0.05 | 88 | 999.0 |
| 20260505080049 | 56 | 155 | 0.0 | 0.0 | 0.00 | 0.00 | 0.05 | 88 | 999.0 |
| 20260505075544 | 56 | 170 | 0.0 | 0.0 | 0.00 | 0.00 | 0.05 | 88 | 999.0 |
| 20260505075046 | 56 | 175 | 0.0 | 0.0 | 0.00 | 0.00 | 0.05 | 88 | 999.0 |
| 20260505074544 | 56 | 170 | 0.0 | 0.0 | 0.00 | 0.00 | 0.05 | 89 | 999.1 |
| 20260505074046 | 55 | 142 | 0.0 | 0.0 | 0.00 | 0.00 | 0.05 | 89 | 999.1 |
| 20260505073542 | 55 | 167 | 0.0 | 0.0 | 0.00 | 0.00 | 0.05 | 89 | 999.2 |
| 20260505073044 | 55 | 201 | 0.0 | 0.0 | 0.00 | 0.00 | 0.05 | 89 | 999.3 |
| 20260505072541 | 55 | 201 | 0.0 | 0.0 | 0.00 | 0.00 | 0.05 | 89 | 999.3 |
| 20260505072041 | 55 | 142 | 0.0 | 0.0 | 0.00 | 0.00 | 0.05 | 89 | 999.3 |
| 20260505071547 | 55 | 170 | 0.0 | 0.0 | 0.00 | 0.00 | 0.05 | 89 | 999.4 |
| 20260505071040 | 55 | 167 | 0.0 | 0.0 | 0.00 | 0.00 | 0.05 | 89 | 999.6 |
| 20260505070540 | 55 | 157 | 0.0 | 0.0 | 0.00 | 0.00 | 0.05 | 89 | 999.4 |
| 20260505070040 | 55 | 156 | 0.0 | 0.0 | 0.00 | 0.00 | 0.05 | 89 | 999.5 |
| 20260505065539 | 55 | 171 | 0.0 | 0.0 | 0.00 | 0.00 | 0.05 | 89 | 999.6 |
| 20260505065038 | 55 | 146 | 0.0 | 0.0 | 0.00 | 0.00 | 0.05 | 89 | 999.8 |
| 20260505064540 | 55 | 171 | 0.0 | 0.0 | 0.00 | 0.00 | 0.05 | 89 | 999.8 |
| 20260505064038 | 55 | 186 | 0.0 | 0.0 | 0.00 | 0.00 | 0.05 | 88 | 1000.1 |
| 20260505063536 | 55 | 169 | 0.0 | 0.0 | 0.00 | 0.00 | 0.05 | 88 | 1000.3 |
| 20260505063039 | 55 | 176 | 0.0 | 0.0 | 0.00 | 0.00 | 0.05 | 88 | 1001.1 |
| 20260505062538 | 55 | 232 | 0.0 | 0.0 | 0.00 | 0.00 | 0.05 | 88 | 1001.1 |
| 20260505062038 | 55 | 178 | 0.0 | 0.0 | 0.00 | 0.00 | 0.05 | 88 | 1000.3 |
| 20260505061537 | 55 | 231 | 0.0 | 0.0 | 0.00 | 0.00 | 0.05 | 87 | 1000.5 |
| 20260505061034 | 55 | 188 | 0.0 | 0.0 | 0.00 | 0.00 | 0.05 | 87 | 1000.9 |
| 20260505060533 | 55 | 198 | 0.0 | 0.0 | 0.00 | 0.00 | 0.05 | 86 | 1000.7 |
| 20260505060037 | 55 | 208 | 0.0 | 0.0 | 0.00 | 0.00 | 0.04 | 85 | 1000.5 |
| 20260505055531 | 56 | 159 | 0.0 | 0.0 | 0.00 | 0.00 | 0.04 | 84 | 1000.5 |
| 20260505055030 | 57 | 175 | 0.0 | 0.0 | 0.00 | 0.00 | 0.03 | 82 | 1000.8 |
| 20260505054529 | 58 | 205 | 0.0 | 0.0 | 0.00 | 0.00 | 0.02 | 80 | 1000.8 |
| 20260505054027 | 59 | 196 | 0.0 | 0.0 | 0.00 | 0.00 | 0.01 | 77 | 1000.8 |
| 20260505053530 | 60 | 235 | 0.0 | 0.0 | 0.00 | 0.00 | 0.00 | 74 | 1000.9 |
| 20260505053027 | 60 | 233 | 0.0 | 0.0 | 0.00 | 0.00 | 0.00 | 73 | 1000.7 |
| 20260505052523 | 61 | 168 | 0.0 | 0.0 | 0.00 | 0.00 | 0.00 | 72 | 1000.6 |
| 20260505052022 | 61 | 265 | 0.0 | 0.0 | 0.00 | 0.00 | 0.00 | 71 | 1000.7 |
| 20260505051521 | 62 | 179 | 0.0 | 0.0 | 0.00 | 0.00 | 0.00 | 69 | 1000.5 |
| 20260505051020 | 62 | 192 | 0.0 | 0.0 | 0.00 | 0.00 | 0.00 | 68 | 1000.4 |
| 20260505050519 | 63 | 167 | 0.0 | 0.0 | 0.00 | 0.00 | 0.00 | 67 | 1000.7 |
| 20260505041510 | 65 | 187 | 0.0 | 0.0 | 0.00 | 0.00 | 0.00 | 67 | 1000.4 |
| 20260505041010 | 65 | 238 | 0.0 | 0.0 | 0.00 | 0.00 | 0.00 | 66 | 1000.3 |
| 20260505040509 | 66 | 207 | 0.0 | 0.0 | 0.00 | 0.00 | 0.00 | 64 | 1000.2 |
| 20260505040008 | 65 | 196 | 0.0 | 0.0 | 0.00 | 0.00 | 0.00 | 64 | 1000.2 |
| 20260505035511 | 65 | 165 | 0.0 | 0.0 | 0.00 | 0.00 | 0.00 | 65 | 1000.4 |
| 20260505035012 | 64 | 188 | 0.0 | 0.0 | 0.00 | 0.00 | 0.00 | 66 | 1000.2 |
| 20260505034507 | 64 | 189 | 0.0 | 0.0 | 0.00 | 0.00 | 0.00 | 66 | 1000.1 |
| 20260505034007 | 63 | 177 | 0.0 | 0.0 | 0.00 | 0.00 | 0.00 | 67 | 999.9 |
| 20260505033508 | 63 | 173 | 0.0 | 0.0 | 0.00 | 0.00 | 0.00 | 66 | 1000.0 |
| 20260505033006 | 63 | 153 | 0.0 | 0.0 | 0.00 | 0.00 | 0.00 | 66 | 1000.1 |
| 20260505032505 | 63 | 185 | 0.0 | 0.0 | 0.00 | 0.00 | 0.00 | 65 | 1000.1 |
| 20260505032005 | 63 | 175 | 0.0 | 0.0 | 0.00 | 0.00 | 0.00 | 65 | 1000.3 |
| 20260505031504 | 63 | 180 | 0.0 | 0.0 | 0.00 | 0.00 | 0.00 | 64 | 1000.4 |
| 20260505031003 | 63 | 177 | 0.0 | 0.0 | 0.00 | 0.00 | 0.00 | 64 | 1000.4 |
| 20260505030503 | 62 | 183 | 0.0 | 0.0 | 0.00 | 0.00 | 0.00 | 64 | 1000.6 |
| 20260505030003 | 62 | 199 | 0.0 | 0.0 | 0.00 | 0.00 | 0.00 | 65 | 1000.6 |
| 20260505025503 | 62 | 182 | 0.0 | 0.0 | 0.00 | 0.00 | 0.00 | 64 | 1000.7 |
| 20260505025002 | 62 | 178 | 0.0 | 0.0 | 0.00 | 0.00 | 0.00 | 64 | 1000.6 |
| 20260505024505 | 62 | 184 | 0.0 | 0.0 | 0.00 | 0.00 | 0.00 | 65 | 1000.7 |
| 20260505024005 | 62 | 198 | 0.0 | 0.0 | 0.00 | 0.00 | 0.00 | 66 | 1000.7 |
| 20260505023502 | 62 | 190 | 0.0 | 0.0 | 0.00 | 0.00 | 0.00 | 66 | 1000.6 |
| 20260505023002 | 62 | 192 | 0.0 | 0.0 | 0.00 | 0.00 | 0.00 | 66 | 1000.6 |
| 20260505022502 | 62 | 157 | 0.0 | 0.0 | 0.00 | 0.00 | 0.00 | 66 | 1000.6 |
| 20260505022003 | 62 | 234 | 0.0 | 0.0 | 0.00 | 0.00 | 0.00 | 66 | 1000.5 |
| 20260505021502 | 61 | 178 | 0.0 | 0.0 | 0.00 | 0.00 | 0.00 | 64 | 1000.5 |
| 20260505021100 | 61 | 165 | 0.0 | 0.0 | 0.00 | 0.00 | 0.00 | 61 | 1000.9 |
| 20260505020602 | 61 | 212 | 0.0 | 0.0 | 0.00 | 0.00 | 0.00 | 59 | 1001.1 |
| 20260505020104 | 61 | 190 | 0.0 | 0.0 | 0.00 | 0.00 | 0.00 | 55 | 1001.3 |
| 20260505015600 | 61 | 190 | 0.0 | 0.0 | 0.00 | 0.00 | 0.00 | 55 | 1000.6 |
| 20260505015102 | 61 | 193 | 0.0 | 0.0 | 0.00 | 0.00 | 0.00 | 55 | 1000.6 |
| 20260505014607 | 61 | 193 | 0.0 | 0.0 | 0.00 | 0.00 | 0.00 | 55 | 1000.6 |
| 20260505014103 | 61 | 193 | 0.0 | 0.0 | 0.00 | 0.00 | 0.00 | 54 | 1000.6 |
| 20260505013559 | 61 | 193 | 0.0 | 0.0 | 0.00 | 0.00 | 0.00 | 54 | 1000.6 |
| 20260505013059 | 61 | 192 | 0.0 | 0.0 | 0.00 | 0.00 | 0.00 | 54 | 1000.6 |
| 20260505012559 | 60 | 146 | 0.0 | 0.0 | 0.00 | 0.00 | 0.00 | 55 | 1000.6 |
| 20260505012059 | 60 | 157 | 0.0 | 0.0 | 0.00 | 0.00 | 0.00 | 55 | 1000.7 |
| 20260505011600 | 61 | 202 | 0.0 | 0.0 | 0.00 | 0.00 | 0.00 | 55 | 1000.7 |
| 20260505011059 | 61 | 168 | 0.0 | 0.0 | 0.00 | 0.00 | 0.00 | 55 | 1000.7 |
| 20260505010601 | 61 | 174 | 0.0 | 0.0 | 0.00 | 0.00 | 0.00 | 54 | 1000.7 |
| 20260505010059 | 62 | 165 | 0.0 | 0.0 | 0.00 | 0.00 | 0.00 | 53 | 1000.7 |
| 20260505005557 | 62 | 165 | 0.0 | 0.0 | 0.00 | 0.00 | 0.00 | 52 | 1000.6 |
| 20260505005058 | 63 | 157 | 0.0 | 0.0 | 0.00 | 0.00 | 0.00 | 51 | 1000.5 |
| 20260505004558 | 63 | 156 | 0.0 | 0.0 | 0.00 | 0.00 | 0.00 | 50 | 1000.6 |
| 20260505004100 | 64 | 162 | 0.0 | 0.0 | 0.00 | 0.00 | 0.00 | 48 | 1000.7 |
| 20260505003555 | 65 | 158 | 0.0 | 0.0 | 0.00 | 0.00 | 0.00 | 46 | 1000.6 |
| 20260505003055 | 66 | 173 | 0.0 | 0.0 | 0.00 | 0.00 | 0.00 | 44 | 1000.7 |
| 20260505002558 | 67 | 186 | 0.0 | 0.0 | 0.00 | 0.00 | 0.00 | 43 | 1000.7 |
| 20260505002056 | 67 | 183 | 0.0 | 0.0 | 0.00 | 0.00 | 0.00 | 42 | 1000.7 |
| 20260505001555 | 68 | 175 | 0.0 | 0.0 | 0.00 | 0.00 | 0.00 | 41 | 1000.6 |
| 20260505001055 | 68 | 178 | 0.0 | 0.0 | 0.00 | 0.00 | 0.00 | 40 | 1000.7 |
| 20260505000554 | 69 | 229 | 0.0 | 0.0 | 0.00 | 0.00 | 0.00 | 40 | 1000.7 |
| 20260505000058 | 69 | 220 | 0.0 | 0.0 | 0.00 | 0.00 | 0.00 | 39 | 1000.7 |
| 20260504235555 | 70 | 227 | 0.0 | 0.0 | 0.00 | 0.00 | 0.00 | 39 | 1000.6 |
| 20260504235055 | 70 | 188 | 0.0 | 0.0 | 0.00 | 0.00 | 0.00 | 39 | 1000.7 |
| 20260504234555 | 70 | 287 | 0.0 | 0.0 | 0.00 | 0.00 | 0.00 | 39 | 1000.7 |
| 20260504234054 | 70 | 228 | 0.0 | 0.0 | 0.00 | 0.00 | 0.00 | 39 | 1000.7 |
| 20260504233553 | 71 | 239 | 0.0 | 0.0 | 0.00 | 0.00 | 0.00 | 39 | 1000.7 |
| 20260504233053 | 71 | 262 | 0.0 | 0.0 | 0.00 | 0.00 | 0.00 | 40 | 1000.7 |
| 20260504232554 | 71 | 218 | 0.0 | 0.0 | 0.00 | 0.00 | 0.00 | 39 | 1000.7 |
| 20260504232055 | 71 | 242 | 0.0 | 0.0 | 0.00 | 0.00 | 0.00 | 40 | 1000.8 |
| 20260504231556 | 71 | 235 | 0.0 | 0.0 | 0.00 | 0.00 | 0.00 | 40 | 1000.8 |
| 20260504231053 | 71 | 240 | 0.0 | 0.0 | 0.00 | 0.00 | 0.00 | 41 | 1000.9 |
| 20260504230553 | 71 | 273 | 0.0 | 0.0 | 0.00 | 0.00 | 0.00 | 41 | 1000.9 |
| 20260504230054 | 71 | 254 | 0.0 | 0.0 | 0.00 | 0.00 | 0.00 | 42 | 1000.8 |
| 20260504225553 | 71 | 261 | 0.0 | 0.0 | 0.00 | 0.00 | 0.00 | 42 | 1000.9 |
| 20260504225052 | 71 | 281 | 0.0 | 0.0 | 0.00 | 0.00 | 0.00 | 41 | 1000.8 |
| 20260504224552 | 71 | 219 | 0.0 | 0.0 | 0.00 | 0.00 | 0.00 | 41 | 1000.9 |
| 20260504224055 | 71 | 236 | 0.0 | 0.0 | 0.00 | 0.00 | 0.00 | 41 | 1000.8 |
| 20260504223554 | 71 | 236 | 0.0 | 0.0 | 0.00 | 0.00 | 0.00 | 41 | 1000.8 |
| 20260504223052 | 71 | 276 | 0.0 | 0.0 | 0.00 | 0.00 | 0.00 | 40 | 1000.8 |
| 20260504222553 | 71 | 274 | 0.0 | 0.0 | 0.00 | 0.00 | 0.00 | 40 | 1000.8 |
| 20260504222051 | 72 | 229 | 0.0 | 0.0 | 0.00 | 0.00 | 0.00 | 39 | 1000.9 |
| 20260504221553 | 72 | 172 | 0.0 | 0.0 | 0.00 | 0.00 | 0.00 | 38 | 1000.8 |
| 20260504221051 | 72 | 221 | 0.0 | 0.0 | 0.00 | 0.00 | 0.00 | 36 | 1000.8 |
| 20260504220551 | 72 | 201 | 0.0 | 0.0 | 0.00 | 0.00 | 0.00 | 36 | 1000.8 |
| 20260504220051 | 72 | 227 | 0.0 | 0.0 | 0.00 | 0.00 | 0.00 | 35 | 1000.8 |
| 20260504215554 | 72 | 239 | 0.0 | 0.0 | 0.00 | 0.00 | 0.00 | 35 | 1000.7 |
| 20260504215050 | 73 | 206 | 0.0 | 0.0 | 0.00 | 0.00 | 0.00 | 35 | 1000.8 |
| 20260504214557 | 73 | 232 | 0.0 | 0.0 | 0.00 | 0.00 | 0.00 | 35 | 1000.7 |
| 20260504214050 | 73 | 280 | 0.0 | 0.0 | 0.00 | 0.00 | 0.00 | 34 | 1000.7 |
| 20260504213549 | 74 | 222 | 0.0 | 0.0 | 0.00 | 0.00 | 0.00 | 35 | 1000.7 |
| 20260504213049 | 73 | 274 | 0.0 | 0.0 | 0.00 | 0.00 | 0.00 | 35 | 1000.7 |
| 20260504212548 | 73 | 222 | 0.0 | 0.0 | 0.00 | 0.00 | 0.00 | 34 | 1000.7 |
| 20260504212049 | 73 | 159 | 0.0 | 0.0 | 0.00 | 0.00 | 0.00 | 37 | 1000.7 |
| 20260504211546 | 73 | 216 | 0.0 | 0.0 | 0.00 | 0.00 | 0.00 | 39 | 1000.7 |
| 20260504211045 | 72 | 193 | 0.0 | 0.0 | 0.00 | 0.00 | 0.00 | 40 | 1000.7 |
| 20260504210544 | 71 | 221 | 0.0 | 0.0 | 0.00 | 0.00 | 0.00 | 42 | 1000.8 |
| 20260504210056 | 71 | 271 | 0.0 | 0.0 | 0.00 | 0.00 | 0.00 | 42 | 1001.0 |
| 20260504205543 | 71 | 163 | 0.0 | 0.0 | 0.00 | 0.00 | 0.00 | 40 | 1001.1 |
| 20260504205043 | 71 | 204 | 0.0 | 0.0 | 0.00 | 0.00 | 0.00 | 41 | 1001.2 |
| 20260504204557 | 71 | 213 | 0.0 | 0.0 | 0.00 | 0.00 | 0.00 | 41 | 1001.2 |
| 20260504204042 | 71 | 216 | 0.0 | 0.0 | 0.00 | 0.00 | 0.00 | 41 | 1001.3 |
| 20260504203541 | 71 | 255 | 0.0 | 0.0 | 0.00 | 0.00 | 0.00 | 42 | 1001.3 |
| 20260504203044 | 71 | 217 | 0.0 | 0.0 | 0.00 | 0.00 | 0.00 | 42 | 1001.3 |
| 20260504202541 | 71 | 252 | 0.0 | 0.0 | 0.00 | 0.00 | 0.00 | 42 | 1001.4 |
| 20260504202039 | 72 | 204 | 0.0 | 0.0 | 0.00 | 0.00 | 0.00 | 42 | 1001.5 |
| 20260504201540 | 72 | 225 | 0.0 | 0.0 | 0.00 | 0.00 | 0.00 | 43 | 1001.4 |
| 20260504201039 | 71 | 221 | 0.0 | 0.0 | 0.00 | 0.00 | 0.00 | 44 | 1001.5 |
| 20260504200538 | 71 | 197 | 0.0 | 0.0 | 0.00 | 0.00 | 0.00 | 43 | 1001.5 |
| 20260504200038 | 71 | 178 | 0.0 | 0.0 | 0.00 | 0.00 | 0.00 | 42 | 1001.7 |
| 20260504195537 | 72 | 222 | 0.0 | 0.0 | 0.00 | 0.00 | 0.00 | 43 | 1001.8 |
| 20260504195038 | 72 | 221 | 0.0 | 0.0 | 0.00 | 0.00 | 0.00 | 43 | 1001.8 |
| 20260504194536 | 71 | 173 | 0.0 | 0.0 | 0.00 | 0.00 | 0.00 | 43 | 1001.8 |
| 20260504194036 | 71 | 177 | 0.0 | 0.0 | 0.00 | 0.00 | 0.00 | 43 | 1001.9 |
| 20260504193535 | 71 | 257 | 0.0 | 0.0 | 0.00 | 0.00 | 0.00 | 43 | 1002.0 |
| 20260504193034 | 71 | 205 | 0.0 | 0.0 | 0.00 | 0.00 | 0.00 | 43 | 1002.1 |
| 20260504192533 | 71 | 190 | 0.0 | 0.0 | 0.00 | 0.00 | 0.00 | 45 | 1002.2 |
| 20260504192032 | 71 | 269 | 0.0 | 0.0 | 0.00 | 0.00 | 0.00 | 44 | 1002.2 |
| 20260504191532 | 71 | 239 | 0.0 | 0.0 | 0.00 | 0.00 | 0.00 | 45 | 1002.3 |
| 20260504191034 | 70 | 217 | 0.0 | 0.0 | 0.00 | 0.00 | 0.00 | 45 | 1002.4 |
| 20260504190531 | 70 | 191 | 0.0 | 0.0 | 0.00 | 0.00 | 0.00 | 45 | 1002.4 |
| 20260504190030 | 70 | 191 | 0.0 | 0.0 | 0.00 | 0.00 | 0.00 | 45 | 1002.5 |
| 20260504185530 | 70 | 183 | 0.0 | 0.0 | 0.00 | 0.00 | 0.00 | 44 | 1002.6 |
| 20260504185032 | 70 | 240 | 0.0 | 0.0 | 0.00 | 0.00 | 0.00 | 43 | 1002.5 |
| 20260504184529 | 70 | 227 | 0.0 | 0.0 | 0.00 | 0.00 | 0.00 | 45 | 1002.6 |
| 20260504184027 | 70 | 201 | 0.0 | 0.0 | 0.00 | 0.00 | 0.00 | 45 | 1002.6 |
| 20260504183526 | 69 | 218 | 0.0 | 0.0 | 0.00 | 0.00 | 0.00 | 45 | 1002.7 |
| 20260504183025 | 69 | 236 | 0.0 | 0.0 | 0.00 | 0.00 | 0.00 | 46 | 1002.8 |
| 20260504182525 | 69 | 237 | 0.0 | 0.0 | 0.00 | 0.00 | 0.00 | 46 | 1002.9 |
| 20260504182023 | 68 | 181 | 0.0 | 0.0 | 0.00 | 0.00 | 0.00 | 47 | 1002.9 |
| 20260504181523 | 69 | 225 | 0.0 | 0.0 | 0.00 | 0.00 | 0.00 | 47 | 1003.0 |
| 20260504181024 | 68 | 194 | 0.0 | 0.0 | 0.00 | 0.00 | 0.00 | 48 | 1003.1 |
| 20260504180522 | 68 | 194 | 0.0 | 0.0 | 0.00 | 0.00 | 0.00 | 47 | 1003.2 |
| 20260504180021 | 69 | 223 | 0.0 | 0.0 | 0.00 | 0.00 | 0.00 | 47 | 1003.3 |